EW5239 Weather Reports


time (UTC)temp
C
wind
direction
speed
KPH
gust
KPH
rain 1hr
cm
rain 24hr
cm
rain mn
cm
humidity
%
barometer
mb
20260503192625 18 215 3.2 3.2 0.00 0.00 0.00 39 1014.4
20260503192507 18 220 3.2 4.8 0.00 0.00 0.00 41 1012.6
20260503192125 18 216 3.2 3.2 0.00 0.00 0.00 39 1014.1
20260503192006 18 222 3.2 4.8 0.00 0.00 0.00 41 1012.6
20260503191625 18 216 3.2 3.2 0.00 0.00 0.00 39 1014.3
20260503191125 18 221 3.2 3.2 0.00 0.00 0.00 37 1014.2
20260503190506 19 225 3.2 4.8 0.00 0.00 0.00 38 1012.4
20260503190130 19 221 3.2 3.2 0.00 0.00 0.00 37 1014.1
20260503190007 19 225 3.2 4.8 0.00 0.00 0.00 38 1012.5
20260503185624 19 226 3.2 3.2 0.00 0.00 0.00 36 1014.2
20260503185506 19 225 3.2 4.8 0.00 0.00 0.00 38 1012.5
20260503185124 19 226 3.2 3.2 0.00 0.00 0.00 36 1014.2
20260503185006 19 225 3.2 4.8 0.00 0.00 0.00 38 1012.4
20260503184506 20 225 3.2 4.8 0.00 0.00 0.00 36 1012.3
20260503184124 20 225 3.2 3.2 0.00 0.00 0.00 34 1014.0
20260503184006 20 225 3.2 4.8 0.00 0.00 0.00 35 1012.3
20260503183625 20 224 3.2 3.2 0.00 0.00 0.00 34 1014.1
20260503183506 20 225 3.2 4.8 0.00 0.00 0.00 35 1012.3
20260503183125 21 215 3.2 3.2 0.00 0.00 0.00 34 1013.8
20260503183006 21 222 3.2 4.8 0.00 0.00 0.00 33 1012.3
20260503182625 21 209 3.2 4.8 0.00 0.00 0.00 32 1013.8
20260503182506 21 222 4.8 6.4 0.00 0.00 0.00 33 1012.2
20260503182006 21 207 6.4 9.7 0.00 0.00 0.00 33 1012.1
20260503181624 21 205 6.4 9.7 0.00 0.00 0.00 32 1013.7
20260503181507 21 198 6.4 9.7 0.00 0.00 0.00 33 1012.0
20260503181125 21 214 6.4 9.7 0.00 0.00 0.00 32 1013.7
20260503181006 21 214 4.8 6.4 0.00 0.00 0.00 32 1012.0
20260503180625 22 225 6.4 9.7 0.00 0.00 0.00 30 1013.7
20260503180506 22 211 4.8 9.7 0.00 0.00 0.00 31 1012.1
20260503180131 22 215 6.4 9.7 0.00 0.00 0.00 29 1013.6
20260503180006 22 206 6.4 9.7 0.00 0.00 0.00 31 1012.1
20260503175625 22 210 6.4 9.7 0.00 0.00 0.00 29 1013.6
20260503175506 22 213 6.4 9.7 0.00 0.00 0.00 31 1012.0
20260503175125 22 203 6.4 8.0 0.00 0.00 0.00 28 1013.6
20260503174506 23 221 6.4 8.0 0.00 0.00 0.00 29 1012.0
20260503174125 23 224 6.4 9.7 0.00 0.00 0.00 28 1013.6
20260503174006 23 215 6.4 9.7 0.00 0.00 0.00 29 1012.0
20260503173624 23 231 6.4 11.3 0.00 0.00 0.00 27 1013.5
20260503173506 23 211 8.0 11.3 0.00 0.00 0.00 28 1011.9
20260503173124 23 227 9.7 12.9 0.00 0.00 0.00 27 1013.5
20260503173007 23 224 9.7 12.9 0.00 0.00 0.00 27 1012.0
20260503172506 24 228 9.7 12.9 0.00 0.00 0.00 27 1011.9
20260503172125 23 206 11.3 16.1 0.00 0.00 0.00 27 1013.9
20260503171624 23 221 11.3 16.1 0.00 0.00 0.00 26 1013.3
20260503171506 24 211 11.3 16.1 0.00 0.00 0.00 26 1011.9
20260503171124 24 212 11.3 17.7 0.00 0.00 0.00 26 1013.5
20260503171006 25 219 11.3 17.7 0.00 0.00 0.00 26 1011.9
20260503170624 24 202 11.3 17.7 0.00 0.00 0.00 25 1013.7
20260503170507 25 220 12.9 17.7 0.00 0.00 0.00 25 1012.0
20260503150624 25 212 12.9 20.9 0.00 0.00 0.00 24 1014.0
20260503150130 26 211 12.9 17.7 0.00 0.00 0.00 23 1014.0
20260503140130 26 226 14.5 17.7 0.00 0.00 0.00 18 1014.7
20260503131124 26 234 16.1 19.3 0.00 0.00 0.00 19 1015.3
20260503131006 25 237 14.5 19.3 0.00 0.00 0.00 23 1013.8
20260503130625 25 192 14.5 19.3 0.00 0.00 0.00 22 1015.2
20260503130506 25 194 14.5 17.7 0.00 0.00 0.00 23 1013.6
20260503130133 25 190 14.5 22.5 0.00 0.00 0.00 22 1015.1
20260503120130 25 187 16.1 24.1 0.00 0.00 0.00 23 1015.7
20260503110625 25 195 16.1 20.9 0.00 0.00 0.00 24 1016.5
20260503110506 24 208 14.5 19.3 0.00 0.00 0.00 27 1014.8
20260503110131 25 179 14.5 17.7 0.00 0.00 0.00 23 1016.3
20260503100131 23 201 14.5 20.9 0.00 0.00 0.00 28 1017.3
20260503090506 21 223 14.5 24.1 0.00 0.00 0.00 34 1016.1
20260503090130 21 215 16.1 22.5 0.00 0.00 0.00 32 1018.0
20260503081625 20 222 14.5 20.9 0.00 0.00 0.00 36 1018.0
20260503081124 20 227 14.5 19.3 0.00 0.00 0.00 37 1018.1
20260503080625 20 204 14.5 19.3 0.00 0.00 0.00 37 1018.1
20260503080506 20 231 16.1 17.7 0.00 0.00 0.00 39 1016.2
20260503080130 20 205 14.5 16.1 0.00 0.00 0.00 38 1017.9
20260503072624 18 226 14.5 19.3 0.00 0.00 0.00 40 1017.8
20260503072506 19 203 16.1 19.3 0.00 0.00 0.00 42 1016.2
20260503072006 18 200 14.5 17.7 0.00 0.00 0.00 42 1016.2
20260503071625 18 199 14.5 22.5 0.00 0.00 0.00 41 1017.9
20260503071506 18 189 14.5 20.9 0.00 0.00 0.00 43 1016.3
20260503071124 18 205 16.1 22.5 0.00 0.00 0.00 40 1018.0
20260503071006 18 187 14.5 20.9 0.00 0.00 0.00 43 1016.2
20260503070625 18 242 16.1 19.3 0.00 0.00 0.00 42 1017.9
20260503070506 18 213 16.1 22.5 0.00 0.00 0.00 45 1016.2
20260503070130 17 230 16.1 24.1 0.00 0.00 0.00 42 1017.8
20260503060131 16 193 14.5 17.7 0.00 0.00 0.00 45 1017.9
20260503055125 15 193 12.9 17.7 0.00 0.00 0.00 48 1017.6
20260503055006 16 176 12.9 17.7 0.00 0.00 0.00 50 1016.2
20260503054506 15 176 11.3 17.7 0.00 0.00 0.00 52 1016.0
20260503054125 15 195 11.3 17.7 0.00 0.00 0.00 50 1017.6
20260503054006 15 195 11.3 14.5 0.00 0.00 0.00 53 1016.0
20260503053624 15 191 11.3 12.9 0.00 0.00 0.00 50 1017.9
20260503053506 15 201 12.9 14.5 0.00 0.00 0.00 53 1016.2
20260503053005 15 199 12.9 17.7 0.00 0.00 0.00 54 1016.2
20260503052625 15 190 12.9 20.9 0.00 0.00 0.00 52 1017.9
20260503052506 14 194 12.9 17.7 0.00 0.00 0.00 55 1016.1
20260503052125 14 187 11.3 20.9 0.00 0.00 0.00 54 1017.8
20260503052006 13 198 11.3 17.7 0.00 0.00 0.00 58 1016.2
20260503051624 13 198 9.7 12.9 0.00 0.00 0.00 55 1018.0
20260503051506 13 204 9.7 12.9 0.00 0.00 0.00 61 1016.2
20260503051125 13 192 8.0 11.3 0.00 0.00 0.00 57 1018.0
20260503051006 12 194 8.0 11.3 0.00 0.00 0.00 65 1016.3
20260503050625 13 172 8.0 11.3 0.00 0.00 0.00 59 1018.0
20260503050506 12 194 8.0 12.9 0.00 0.00 0.00 68 1016.3
20260503050130 13 168 4.8 11.3 0.00 0.00 0.00 61 1018.2
20260503050006 11 196 4.8 12.9 0.00 0.00 0.00 72 1016.4
20260503045625 13 149 3.2 4.8 0.00 0.00 0.00 68 1018.2
20260503045506 11 124 3.2 4.8 0.00 0.00 0.00 74 1016.4
20260503045125 13 127 3.2 3.2 0.00 0.00 0.00 71 1018.3
20260503045005 11 120 3.2 3.2 0.00 0.00 0.00 74 1016.3
20260503044625 12 130 1.6 3.2 0.00 0.00 0.00 75 1018.3
20260503044506 10 134 1.6 3.2 0.00 0.00 0.00 75 1016.4
20260503044124 11 139 1.6 3.2 0.00 0.00 0.00 82 1018.2
20260503044006 10 130 1.6 3.2 0.00 0.00 0.00 76 1016.3
20260503043625 10 139 1.6 3.2 0.00 0.00 0.00 83 1018.1
20260503043505 10 135 3.2 3.2 0.00 0.00 0.00 77 1016.2
20260503043125 8 136 3.2 4.8 0.00 0.00 0.00 84 1018.3
20260503043006 10 135 3.2 3.2 0.00 0.00 0.00 78 1016.5
20260503042625 8 133 3.2 4.8 0.00 0.00 0.00 85 1018.2
20260503042506 9 132 3.2 3.2 0.00 0.00 0.00 79 1016.4
20260503042006 8 132 3.2 3.2 0.00 0.00 0.00 80 1016.4
20260503041625 7 129 1.6 3.2 0.00 0.00 0.00 84 1018.4
20260503041506 8 132 3.2 3.2 0.00 0.00 0.00 82 1016.5
20260503041125 7 130 1.6 3.2 0.00 0.00 0.00 85 1018.5
20260503040624 7 135 3.2 3.2 0.00 0.00 0.00 85 1018.3
20260503040506 7 135 3.2 3.2 0.00 0.00 0.00 82 1016.6
20260503040131 7 135 3.2 3.2 0.00 0.00 0.00 85 1018.4
20260503040006 7 128 1.6 3.2 0.00 0.00 0.00 82 1016.4
20260503035625 6 135 1.6 3.2 0.00 0.00 0.00 86 1018.5
20260503035505 7 117 0.0 3.2 0.00 0.00 0.00 82 1016.4
20260503035125 6 135 0.0 1.6 0.00 0.00 0.00 85 1018.2
20260503035006 7 181 0.0 1.6 0.00 0.00 0.00 82 1016.4
20260503034625 6 175 0.0 1.6 0.00 0.00 0.00 86 1018.4
20260503034506 7 156 1.6 3.2 0.00 0.00 0.00 82 1016.5
20260503034006 7 142 1.6 3.2 0.00 0.00 0.00 83 1016.3
20260503033625 6 146 1.6 3.2 0.00 0.00 0.00 87 1018.6
20260503033506 7 136 3.2 3.2 0.00 0.00 0.00 83 1016.4
20260503033124 6 144 3.2 3.2 0.00 0.00 0.00 87 1018.4
20260503033006 7 150 3.2 3.2 0.00 0.00 0.00 83 1016.2
20260503032625 6 156 3.2 3.2 0.00 0.00 0.00 86 1018.5
20260503032506 6 174 3.2 3.2 0.00 0.00 0.00 83 1016.4
20260503032006 6 181 3.2 3.2 0.00 0.00 0.00 83 1016.4
20260503031625 5 181 0.0 3.2 0.00 0.00 0.00 85 1018.4
20260503031506 6 181 1.6 3.2 0.00 0.00 0.00 82 1016.5
20260503031125 5 0 0.0 0.0 0.00 0.00 0.00 85 1018.4
20260503031005 6 181 1.6 3.2 0.00 0.00 0.00 82 1016.3
20260503030625 5 0 0.0 0.0 0.00 0.00 0.00 85 1018.3
20260503030506 6 181 1.6 3.2 0.00 0.00 0.00 82 1016.4
20260503030006 6 181 1.6 3.2 0.00 0.00 0.00 82 1016.5
20260503025625 5 151 0.0 3.2 0.00 0.00 0.00 84 1018.6
20260503025506 6 168 1.6 3.2 0.00 0.00 0.00 82 1016.3
20260503025125 6 144 0.0 3.2 0.00 0.00 0.00 84 1018.3
20260503025006 6 169 1.6 3.2 0.00 0.00 0.00 82 1016.3
20260503024625 6 160 0.0 3.2 0.00 0.00 0.00 82 1018.6
20260503024506 6 178 1.6 3.2 0.00 0.00 0.00 81 1016.4
20260503024125 6 181 0.0 1.6 0.00 0.00 0.00 82 1018.3
20260503024006 6 181 1.6 3.2 0.00 0.00 0.00 81 1016.3
20260503023625 6 0 0.0 0.0 0.00 0.00 0.00 82 1018.3
20260503023506 7 181 1.6 3.2 0.00 0.00 0.00 79 1016.4
20260503023124 6 0 0.0 0.0 0.00 0.00 0.00 82 1018.2
20260503023006 7 181 1.6 3.2 0.00 0.00 0.00 79 1016.4
20260503022125 7 181 0.0 1.6 0.00 0.00 0.00 81 1018.3
20260503021625 7 174 1.6 3.2 0.00 0.00 0.00 81 1018.4
20260503021506 8 174 1.6 3.2 0.00 0.00 0.00 79 1016.4
20260503021125 7 175 1.6 3.2 0.00 0.00 0.00 81 1018.3
20260503021006 8 175 3.2 3.2 0.00 0.00 0.00 79 1016.3
20260503020627 7 178 1.6 3.2 0.00 0.00 0.00 82 1018.5
20260503020131 7 173 1.6 3.2 0.00 0.00 0.00 82 1018.4
20260503020006 7 161 3.2 3.2 0.00 0.00 0.00 79 1016.5
20260503015625 7 164 1.6 3.2 0.00 0.00 0.00 82 1018.4
20260503015506 7 160 3.2 3.2 0.00 0.00 0.00 80 1016.5
20260503015125 7 151 1.6 3.2 0.00 0.00 0.00 82 1018.3
20260503015006 7 152 3.2 3.2 0.00 0.00 0.00 79 1016.5
20260503014625 6 150 1.6 3.2 0.00 0.00 0.00 82 1018.7
20260503014125 6 181 0.0 1.6 0.00 0.00 0.00 82 1018.7
20260503013506 7 181 1.6 3.2 0.00 0.00 0.00 79 1016.6
20260503013125 7 162 0.0 1.6 0.00 0.00 0.00 81 1018.6
20260503012624 7 145 0.0 1.6 0.00 0.00 0.00 81 1018.6
20260503012506 7 136 0.0 3.2 0.00 0.00 0.00 78 1016.5
20260503012125 7 135 0.0 1.6 0.00 0.00 0.00 79 1018.5
20260503012005 7 0 0.0 0.0 0.00 0.00 0.00 77 1016.6
20260503011625 7 0 0.0 0.0 0.00 0.00 0.00 79 1018.6
20260503011506 7 181 0.0 1.6 0.00 0.00 0.00 77 1016.6
20260503011125 7 181 0.0 1.6 0.00 0.00 0.00 78 1018.5
20260503010625 7 181 0.0 1.6 0.00 0.00 0.00 78 1018.5
20260503010506 8 181 0.0 3.2 0.00 0.00 0.00 76 1016.5
20260503010006 8 0 0.0 0.0 0.00 0.00 0.00 76 1016.6
20260503005625 7 0 0.0 0.0 0.00 0.00 0.00 76 1018.5
20260503005125 8 0 0.0 0.0 0.00 0.00 0.00 76 1018.7
20260503005005 8 0 0.0 0.0 0.00 0.00 0.00 75 1016.8
20260503004506 9 135 0.0 1.6 0.00 0.00 0.00 74 1016.6
20260503004125 8 135 0.0 3.2 0.00 0.00 0.00 76 1018.6
20260503003124 8 91 3.2 3.2 0.00 0.00 0.00 76 1018.6
20260503003006 9 90 4.8 4.8 0.00 0.00 0.00 74 1016.7
20260503002506 9 90 4.8 4.8 0.00 0.00 0.00 74 1016.6
20260503002005 9 90 3.2 4.8 0.00 0.00 0.00 73 1016.6
20260503001625 8 90 1.6 3.2 0.00 0.00 0.00 75 1018.4
20260503001506 9 90 1.6 3.2 0.00 0.00 0.00 72 1016.6
20260503001125 8 0 0.0 0.0 0.00 0.00 0.00 75 1018.6
20260503001007 9 0 0.0 0.0 0.00 0.00 0.00 72 1016.8
20260503000625 8 0 0.0 0.0 0.00 0.00 0.00 72 1018.7
20260503000506 9 270 0.0 1.6 0.00 0.00 0.00 70 1016.7
20260503000131 8 0 0.0 0.0 0.00 0.00 0.00 72 1018.5
20260503000006 9 270 0.0 3.2 0.00 0.00 0.00 70 1016.9
20260502235625 8 270 0.0 1.6 0.00 0.00 0.00 70 1018.7
20260502235125 9 270 0.0 1.6 0.00 0.00 0.00 69 1018.6
20260502235006 10 270 0.0 3.2 0.00 0.00 0.00 68 1016.9
20260502234125 10 181 0.0 1.6 0.00 0.00 0.00 66 1018.5
20260502234006 10 181 1.6 3.2 0.00 0.00 0.00 66 1016.8
20260502233625 10 181 1.6 3.2 0.00 0.00 0.00 66 1018.6
20260502233506 11 181 3.2 3.2 0.00 0.00 0.00 66 1016.9
20260502233125 10 181 1.6 3.2 0.00 0.00 0.00 65 1018.5
20260502233006 11 190 1.6 3.2 0.00 0.00 0.00 64 1016.8
20260502232625 11 183 1.6 3.2 0.00 0.00 0.00 64 1018.6
20260502232505 11 189 1.6 3.2 0.00 0.00 0.00 64 1016.8
20260502232125 11 167 3.2 3.2 0.00 0.00 0.00 63 1018.6
20260502231506 11 159 3.2 4.8 0.00 0.00 0.00 64 1016.9
20260502231124 11 157 3.2 3.2 0.00 0.00 0.00 63 1018.7
20260502231006 12 157 3.2 3.2 0.00 0.00 0.00 62 1016.9
20260502230506 12 173 3.2 3.2 0.00 0.00 0.00 62 1016.9
20260502230006 12 181 1.6 3.2 0.00 0.00 0.00 62 1017.2
20260502225625 12 181 1.6 3.2 0.00 0.00 0.00 60 1019.0
20260502225506 12 225 0.0 3.2 0.00 0.00 0.00 61 1017.0
20260502225125 12 181 0.0 3.2 0.00 0.00 0.00 59 1018.8
20260502225006 12 186 1.6 3.2 0.00 0.00 0.00 61 1017.0
20260502224625 12 177 1.6 3.2 0.00 0.00 0.00 59 1018.8
20260502224125 12 177 1.6 3.2 0.00 0.00 0.00 58 1018.7
20260502224006 12 188 3.2 3.2 0.00 0.00 0.00 60 1017.0
20260502223625 13 184 1.6 3.2 0.00 0.00 0.00 58 1018.7
20260502223506 13 185 3.2 3.2 0.00 0.00 0.00 60 1017.1
20260502223125 13 183 3.2 4.8 0.00 0.00 0.00 58 1019.0
20260502222624 13 181 4.8 6.4 0.00 0.00 0.00 59 1018.8
20260502222506 13 201 4.8 6.4 0.00 0.00 0.00 61 1017.1
20260502222125 12 183 4.8 6.4 0.00 0.00 0.00 61 1019.0
20260502222006 12 212 6.4 6.4 0.00 0.00 0.00 63 1017.3
20260502221506 12 196 4.8 6.4 0.00 0.00 0.00 64 1017.3
20260502221124 11 185 1.6 6.4 0.00 0.00 0.00 65 1019.1
20260502221006 11 181 3.2 6.4 0.00 0.00 0.00 65 1017.3
20260502220625 11 181 0.0 1.6 0.00 0.00 0.00 65 1019.0
20260502220506 11 181 1.6 3.2 0.00 0.00 0.00 66 1017.3
20260502220132 11 181 0.0 1.6 0.00 0.00 0.00 65 1019.0
20260502220007 11 181 1.6 3.2 0.00 0.00 0.00 66 1017.3
20260502215624 11 181 0.0 1.6 0.00 0.00 0.00 65 1019.0
20260502215506 11 181 1.6 3.2 0.00 0.00 0.00 65 1017.3
20260502215125 11 174 1.6 3.2 0.00 0.00 0.00 65 1019.1
20260502215005 11 171 1.6 3.2 0.00 0.00 0.00 65 1017.3
20260502214625 11 172 1.6 3.2 0.00 0.00 0.00 65 1019.1
20260502214506 11 169 3.2 3.2 0.00 0.00 0.00 65 1017.4
20260502214125 11 173 1.6 3.2 0.00 0.00 0.00 65 1019.2
20260502213625 11 171 1.6 3.2 0.00 0.00 0.00 65 1019.1
20260502213505 11 169 3.2 3.2 0.00 0.00 0.00 65 1017.4
20260502213125 11 167 1.6 3.2 0.00 0.00 0.00 65 1019.1
20260502213006 11 175 1.6 3.2 0.00 0.00 0.00 64 1017.4
20260502212125 11 221 1.6 3.2 0.00 0.00 0.00 64 1019.2
20260502212006 11 230 3.2 3.2 0.00 0.00 0.00 63 1017.6
20260502211506 12 229 3.2 4.8 0.00 0.00 0.00 62 1017.6
20260502211125 11 187 3.2 6.4 0.00 0.00 0.00 64 1019.2
20260502211005 12 192 3.2 6.4 0.00 0.00 0.00 62 1017.5
20260502210625 11 185 4.8 6.4 0.00 0.00 0.00 64 1019.3
20260502210506 12 178 4.8 6.4 0.00 0.00 0.00 62 1017.5
20260502210131 11 183 4.8 6.4 0.00 0.00 0.00 64 1019.3
20260502210006 12 181 4.8 4.8 0.00 0.00 0.00 62 1017.4
20260502205625 11 178 3.2 6.4 0.00 0.00 0.00 64 1019.2
20260502205506 12 183 3.2 4.8 0.00 0.00 0.00 61 1017.6
20260502205124 11 177 3.2 3.2 0.00 0.00 0.00 63 1019.3
20260502205006 12 183 3.2 4.8 0.00 0.00 0.00 61 1017.6
20260502204624 11 176 3.2 3.2 0.00 0.00 0.00 63 1019.3
20260502204505 12 177 1.6 3.2 0.00 0.00 0.00 61 1017.7
20260502204125 12 176 1.6 3.2 0.00 0.00 0.00 61 1019.4
20260502204006 12 181 0.0 3.2 0.00 0.00 0.00 58 1017.6
20260502203625 12 178 1.6 3.2 0.00 0.00 0.00 61 1019.4
20260502203506 13 181 0.0 3.2 0.00 0.00 0.00 58 1017.7
20260502203125 12 176 0.0 1.6 0.00 0.00 0.00 59 1019.3
20260502203005 13 181 0.0 3.2 0.00 0.00 0.00 57 1017.7
20260502202506 13 181 1.6 3.2 0.00 0.00 0.00 56 1017.5
20260502202125 13 162 1.6 3.2 0.00 0.00 0.00 57 1019.4
20260502201505 14 177 3.2 6.4 0.00 0.00 0.00 55 1017.7
20260502201006 14 181 4.8 6.4 0.00 0.00 0.00 55 1017.7
20260502200130 13 184 3.2 4.8 0.00 0.00 0.00 55 1019.4
20260502200005 14 176 3.2 6.4 0.00 0.00 0.00 54 1017.7
20260502195625 13 158 1.6 3.2 0.00 0.00 0.00 55 1019.4
20260502195506 14 171 3.2 3.2 0.00 0.00 0.00 54 1017.7
20260502195125 14 156 1.6 3.2 0.00 0.00 0.00 54 1019.3
20260502195006 14 188 1.6 3.2 0.00 0.00 0.00 54 1017.6
20260502194625 14 256 1.6 4.8 0.00 0.00 0.00 53 1019.5
20260502194505 15 271 1.6 4.8 0.00 0.00 0.00 52 1017.7
20260502194125 15 238 1.6 4.8 0.00 0.00 0.00 50 1019.4
20260502194006 15 243 3.2 4.8 0.00 0.00 0.00 51 1017.7
20260502193506 16 182 3.2 3.2 0.00 0.00 0.00 49 1017.8
20260502193125 16 162 3.2 3.2 0.00 0.00 0.00 46 1019.7
20260502193006 16 174 3.2 3.2 0.00 0.00 0.00 48 1017.9